DW3319 Weather Reports


Display with metric or nautical units.
time (UTC)temp
F
wind
direction
speed
MPH
gust
MPH
rain 1hr
in
rain 24hr
in
rain mn
in
humidity
%
barometer
mb
20260507141546 61 309 2.0 8.0 0.00 0.03 0.03 95 1016.4
20260507140055 60 103 3.0 8.0 0.00 0.03 0.03 95 1016.2
20260507134544 60 93 2.0 10.0 0.00 0.03 0.03 96 1016.0
20260507133040 60 34 3.0 10.0 0.00 0.03 0.03 96 1015.8
20260507131547 60 36 2.0 6.0 0.00 0.03 0.03 97 1016.2
20260507124559 59 335 2.0 7.0 0.00 0.03 0.03 98 1015.8
20260507123042 59 310 2.0 7.0 0.00 0.03 0.03 98 1015.6
20260507121544 59 51 1.0 7.0 0.00 0.03 0.03 98 1015.0
20260507120041 59 9 2.0 9.0 0.00 0.03 0.03 98 1015.0
20260507114549 59 51 2.0 9.0 0.00 0.03 0.03 98 1014.7
20260507113044 59 328 2.0 12.0 0.00 0.03 0.03 98 1014.3
20260507111544 59 51 3.0 8.0 0.00 0.03 0.03 98 1014.3
20260507110048 60 15 3.0 13.0 0.00 0.03 0.03 98 1014.3
20260507104551 60 336 2.0 13.0 0.00 0.03 0.03 98 1014.7
20260507103041 61 56 3.0 9.0 0.00 0.03 0.03 98 1014.5
20260507101538 61 324 3.0 7.0 0.00 0.03 0.03 98 1013.8
20260507100049 61 339 3.0 9.0 0.00 0.03 0.03 98 1013.8
20260507094545 61 341 3.0 10.0 0.00 0.03 0.03 98 1013.5
20260507093044 62 330 4.0 11.0 0.00 0.03 0.03 98 1013.3
20260507091544 62 332 4.0 13.0 0.00 0.03 0.03 98 1013.5
20260507090041 63 311 3.0 12.0 0.00 0.03 0.03 98 1013.4
20260507084539 63 344 2.0 10.0 0.00 0.03 0.03 98 1013.4
20260507083037 63 57 2.0 12.0 0.00 0.03 0.03 97 1013.1
20260507081544 64 346 3.0 9.0 0.00 0.03 0.03 97 1013.1
20260507080042 64 46 4.0 10.0 0.00 0.03 0.03 97 1012.8
20260507074546 65 340 3.0 10.0 0.00 0.03 0.03 97 1013.0
20260507073046 65 309 2.0 9.0 0.00 0.03 0.03 97 1012.9
20260507071543 66 61 2.0 10.0 0.03 0.03 0.03 97 1012.8
20260507070048 67 51 2.0 12.0 0.03 0.03 0.03 96 1013.0
20260507064539 69 126 2.0 9.0 0.03 0.03 0.03 96 1012.9
20260507063052 70 346 2.0 9.0 0.03 0.03 0.03 96 1012.8
20260507061549 70 9 2.0 10.0 0.00 0.00 0.00 96 1012.7
20260507060048 71 34 3.0 9.0 0.00 0.00 0.00 96 1012.6
20260507054545 73 104 4.0 11.0 0.00 0.00 0.00 95 1012.5
20260507053043 76 325 0.0 2.0 0.00 0.00 0.00 98 1012.2
20260507051539 76 309 0.0 2.0 0.00 0.00 0.00 97 1012.2
20260507050039 76 0 0.0 3.0 0.00 0.00 0.00 97 1012.0
20260507044559 76 153 1.0 3.0 0.00 0.00 0.00 97 1012.0
20260507043042 76 0 0.0 1.0 0.00 0.00 0.00 97 1011.9
20260507041541 76 126 0.0 2.0 0.00 0.00 0.00 97 1011.8
20260507040037 76 0 0.0 2.0 0.00 0.00 0.00 97 1011.6
20260507034544 77 0 0.0 2.0 0.00 0.00 0.00 96 1011.6
20260507033046 77 205 1.0 5.0 0.00 0.00 0.00 97 1011.4
20260507031544 77 178 1.0 4.0 0.00 0.00 0.00 97 1011.4
20260507030043 77 190 2.0 7.0 0.00 0.00 0.00 97 1011.3
20260507024545 77 167 1.0 5.0 0.00 0.00 0.00 97 1010.9
20260507023044 77 0 1.0 4.0 0.00 0.00 0.00 97 1010.8
20260507021545 77 153 2.0 6.0 0.00 0.00 0.00 97 1010.6
20260507020044 78 173 4.0 7.0 0.00 0.00 0.00 96 1010.4
20260507014547 78 167 5.0 8.0 0.00 0.00 0.00 95 1010.3
20260507013051 78 265 1.0 8.0 0.00 0.00 0.00 94 1010.2
20260507011545 79 265 2.0 9.0 0.00 0.00 0.00 94 1010.1
20260507010054 79 163 3.0 9.0 0.00 0.00 0.00 93 1009.9
20260507004545 80 184 2.0 10.0 0.00 0.00 0.00 92 1009.7
20260507003039 80 173 1.0 14.0 0.00 0.00 0.00 91 1009.6
20260507001550 80 250 3.0 12.0 0.00 0.00 0.00 91 1009.6
20260507000045 80 165 3.0 8.0 0.00 0.00 0.00 90 1009.5
20260506234545 81 193 2.0 16.0 0.00 0.00 0.00 90 1009.3
20260506233056 81 173 4.0 16.0 0.00 0.00 0.00 90 1009.0
20260506231543 81 173 5.0 14.0 0.00 0.00 0.00 89 1009.0
20260506230042 82 238 5.0 15.0 0.00 0.00 0.00 88 1009.2
20260506224541 83 196 6.0 14.0 0.00 0.00 0.00 87 1009.1
20260506223044 82 193 5.0 17.0 0.00 0.00 0.00 87 1009.2
20260506221553 83 168 3.0 15.0 0.00 0.00 0.00 85 1009.2
20260506220036 83 171 5.0 13.0 0.00 0.00 0.00 85 1009.2
20260506214543 83 164 3.0 15.0 0.00 0.00 0.00 84 1009.2
20260506213038 84 207 5.0 15.0 0.00 0.00 0.00 83 1009.3
20260506211538 84 225 4.0 17.0 0.00 0.00 0.00 85 1009.2
20260506210045 83 196 6.0 12.0 0.00 0.00 0.00 86 1009.5
20260506204545 83 166 10.0 17.0 0.00 0.00 0.00 87 1009.4
20260506203043 82 142 5.0 12.0 0.00 0.00 0.00 88 1009.7
20260506201546 82 165 4.0 11.0 0.00 0.00 0.00 88 1010.0
20260506200046 82 155 3.0 14.0 0.00 0.00 0.00 88 1010.1
20260506194545 83 237 6.0 16.0 0.00 0.00 0.00 87 1010.2
20260506193044 83 159 7.0 13.0 0.00 0.00 0.00 87 1010.3
20260506191543 83 166 7.0 17.0 0.00 0.00 0.00 87 1010.3
20260506190043 83 171 9.0 15.0 0.00 0.00 0.00 87 1010.3
20260506184546 83 178 4.0 15.0 0.00 0.00 0.00 87 1010.9
20260506183039 82 167 5.0 12.0 0.00 0.00 0.00 88 1011.3
20260506181537 83 0 4.0 14.0 0.00 0.00 0.00 87 1011.4
20260506180049 82 165 5.0 12.0 0.00 0.00 0.00 88 1011.5
20260506174546 82 221 5.0 14.0 0.00 0.00 0.00 88 1011.9
20260506173051 81 153 6.0 12.0 0.00 0.00 0.00 90 1012.0
20260506171551 81 209 5.0 11.0 0.00 0.00 0.00 90 1012.0
20260506170043 79 171 5.0 11.0 0.00 0.00 0.00 92 1012.1
20260506164554 79 137 4.0 10.0 0.00 0.00 0.00 93 1012.1
20260506163045 79 170 3.0 8.0 0.00 0.00 0.00 93 1012.2
20260506161551 78 146 3.0 8.0 0.00 0.00 0.00 93 1012.2
20260506160050 78 166 4.0 9.0 0.00 0.00 0.00 93 1012.0
20260506154553 78 142 4.0 9.0 0.00 0.00 0.00 93 1011.9
20260506153038 78 140 3.0 10.0 0.00 0.00 0.00 94 1011.7
20260506151537 78 153 3.0 9.0 0.00 0.00 0.00 95 1011.6
20260506150037 77 150 3.0 8.0 0.00 0.00 0.00 95 1011.5
20260506144546 77 184 3.0 9.0 0.00 0.00 0.00 95 1011.5
20260506143042 77 177 4.0 8.0 0.00 0.00 0.00 96 1011.4